Time,TemperatureF,DewpointF,PressureIn,WindDirection,WindDirectionDegrees,WindSpeedMPH,WindSpeedGustMPH,Humidity,HourlyPrecipIn,Conditions,Clouds,dailyrainin,SoftwareType,DateUTC
2013-02-13 00:02:00,30.0,22.0,29.86,WSW,248,0.0,2.0,73,0.00,,,0.00,,2013-02-13 05:02:00,
2013-02-13 00:11:00,30.0,23.0,29.87,WSW,251,1.0,2.0,74,0.00,,,0.00,,2013-02-13 05:11:00,
2013-02-13 00:22:00,30.0,23.0,29.87,WSW,251,1.0,2.0,74,0.00,,,0.00,,2013-02-13 05:22:00,
2013-02-13 00:32:00,30.0,23.0,29.87,WSW,251,1.0,2.0,74,0.00,,,0.00,,2013-02-13 05:32:00,
2013-02-13 00:42:00,30.0,23.0,29.87,WSW,251,1.0,2.0,74,0.00,,,0.00,,2013-02-13 05:42:00,
2013-02-13 00:52:00,30.0,23.0,29.87,WSW,251,1.0,2.0,74,0.00,,,0.00,,2013-02-13 05:52:00,
2013-02-13 01:02:00,30.0,23.0,29.87,West,270,1.0,2.0,75,0.00,,,0.00,,2013-02-13 06:02:00,
2013-02-13 01:11:00,29.0,22.0,29.87,WSW,248,1.0,3.0,75,0.00,,,0.00,,2013-02-13 06:11:00,
2013-02-13 01:22:00,29.0,22.0,29.87,WSW,248,1.0,3.0,75,0.00,,,0.00,,2013-02-13 06:22:00,
2013-02-13 01:32:00,29.0,22.0,29.87,WSW,248,1.0,3.0,75,0.00,,,0.00,,2013-02-13 06:32:00,
2013-02-13 01:42:00,29.0,22.0,29.87,WSW,248,1.0,2.0,76,0.00,,,0.00,,2013-02-13 06:42:00,
2013-02-13 01:52:00,29.0,22.0,29.87,WSW,248,1.0,2.0,76,0.00,,,0.00,,2013-02-13 06:52:00,
2013-02-13 02:02:00,29.0,22.0,29.87,WSW,258,1.0,2.0,76,0.00,,,0.00,,2013-02-13 07:02:00,
2013-02-13 02:11:00,29.0,22.0,29.87,SW,225,0.0,2.0,76,0.00,,,0.00,,2013-02-13 07:11:00,
2013-02-13 02:22:00,29.0,22.0,29.87,SW,225,0.0,2.0,76,0.00,,,0.00,,2013-02-13 07:22:00,
2013-02-13 02:32:00,29.0,22.0,29.87,SW,230,1.0,2.0,76,0.00,,,0.00,,2013-02-13 07:32:00,
2013-02-13 02:42:00,29.0,22.0,29.87,SE,136,0.0,1.0,76,0.00,,,0.00,,2013-02-13 07:42:00,
2013-02-13 02:52:00,29.0,22.0,29.87,SE,136,0.0,1.0,76,0.00,,,0.00,,2013-02-13 07:52:00,
2013-02-13 03:01:00,28.0,22.0,29.87,East,101,0.0,0.0,77,0.00,,,0.00,,2013-02-13 08:01:00,
2013-02-13 03:11:00,28.0,22.0,29.86,ESE,112,0.0,0.0,77,0.00,,,0.00,,2013-02-13 08:11:00,
2013-02-13 03:21:00,28.0,22.0,29.86,ESE,112,0.0,0.0,77,0.00,,,0.00,,2013-02-13 08:21:00,
2013-02-13 03:32:00,29.0,23.0,29.85,North,4,0.0,1.0,77,0.00,,,0.00,,2013-02-13 08:32:00,
2013-02-13 03:43:00,29.0,23.0,29.85,North,4,0.0,1.0,77,0.00,,,0.00,,2013-02-13 08:43:00,
2013-02-13 03:52:00,28.0,22.0,29.83,North,0,0.0,1.0,77,0.00,,,0.00,,2013-02-13 08:52:00,
2013-02-13 04:01:00,28.0,22.0,29.83,NE,45,0.0,0.0,78,0.00,,,0.00,,2013-02-13 09:01:00,
2013-02-13 04:11:00,28.0,22.0,29.83,NE,45,0.0,0.0,78,0.00,,,0.00,,2013-02-13 09:11:00,
2013-02-13 04:21:00,28.0,22.0,29.83,NNE,22,0.0,0.0,79,0.00,,,0.00,,2013-02-13 09:21:00,
2013-02-13 04:31:00,28.0,22.0,29.83,ENE,68,0.0,0.0,79,0.00,,,0.00,,2013-02-13 09:31:00,
2013-02-13 04:42:00,28.0,22.0,29.82,WSW,248,0.0,1.0,78,0.00,,,0.00,,2013-02-13 09:42:00,
2013-02-13 04:52:00,28.0,22.0,29.82,WSW,248,0.0,1.0,78,0.00,,,0.00,,2013-02-13 09:52:00,
2013-02-13 05:01:00,28.0,22.0,29.82,WSW,248,0.0,1.0,78,0.00,,,0.00,,2013-02-13 10:01:00,
2013-02-13 05:11:00,28.0,22.0,29.82,WSW,248,1.0,1.0,79,0.00,,,0.00,,2013-02-13 10:11:00,
2013-02-13 05:21:00,28.0,22.0,29.82,WSW,248,1.0,1.0,79,0.00,,,0.00,,2013-02-13 10:21:00,
2013-02-13 05:32:00,28.0,22.0,29.83,NNW,333,0.0,1.0,79,0.00,,,0.00,,2013-02-13 10:32:00,
2013-02-13 05:42:00,28.0,23.0,29.82,SE,135,0.0,0.0,80,0.00,,,0.00,,2013-02-13 10:42:00,
2013-02-13 05:52:00,28.0,23.0,29.82,SE,135,0.0,0.0,80,0.00,,,0.00,,2013-02-13 10:52:00,
2013-02-13 06:01:00,28.0,23.0,29.82,SE,135,0.0,0.0,80,0.00,,,0.00,,2013-02-13 11:01:00,
2013-02-13 06:11:00,28.0,23.0,29.82,SE,135,0.0,0.0,80,0.00,,,0.00,,2013-02-13 11:11:00,
2013-02-13 06:22:00,28.0,23.0,29.82,SE,135,0.0,0.0,80,0.00,,,0.00,,2013-02-13 11:22:00,
2013-02-13 06:32:00,28.0,23.0,29.82,SE,135,0.0,0.0,80,0.00,,,0.00,,2013-02-13 11:32:00,
2013-02-13 06:42:00,26.0,20.0,29.82,WSW,248,1.0,1.0,79,0.00,,,0.00,,2013-02-13 11:42:00,
2013-02-13 06:52:00,26.0,20.0,29.82,WSW,248,1.0,1.0,79,0.00,,,0.00,,2013-02-13 11:52:00,
2013-02-13 07:02:00,26.0,20.0,29.82,WSW,248,1.0,1.0,79,0.00,,,0.00,,2013-02-13 12:02:00,
2013-02-13 07:11:00,26.0,21.0,29.82,WSW,248,1.0,2.0,80,0.00,,,0.00,,2013-02-13 12:11:00,
2013-02-13 07:22:00,26.0,21.0,29.82,WSW,248,1.0,2.0,80,0.00,,,0.00,,2013-02-13 12:22:00,
2013-02-13 07:32:00,26.0,21.0,29.82,SE,138,1.0,2.0,80,0.00,,,0.00,,2013-02-13 12:32:00,
2013-02-13 07:42:00,27.0,22.0,29.82,SE,135,1.0,2.0,81,0.00,,,0.00,,2013-02-13 12:42:00,
2013-02-13 07:52:00,27.0,22.0,29.82,SE,135,1.0,2.0,81,0.00,,,0.00,,2013-02-13 12:52:00,
2013-02-13 08:02:00,27.0,22.0,29.82,ENE,68,1.0,2.0,81,0.00,,,0.00,,2013-02-13 13:02:00,
2013-02-13 08:11:00,28.0,23.0,29.82,ESE,112,1.0,2.0,81,0.00,,,0.00,,2013-02-13 13:11:00,
2013-02-13 08:21:00,28.0,23.0,29.82,ESE,112,1.0,2.0,81,0.00,,,0.00,,2013-02-13 13:21:00,
2013-02-13 08:32:00,28.0,23.0,29.82,ESE,112,1.0,2.0,81,0.00,,,0.00,,2013-02-13 13:32:00,
2013-02-13 08:42:00,28.0,23.0,29.82,ESE,112,1.0,2.0,81,0.00,,,0.00,,2013-02-13 13:42:00,
2013-02-13 08:52:00,28.0,23.0,29.82,ESE,112,1.0,2.0,81,0.00,,,0.00,,2013-02-13 13:52:00,
2013-02-13 09:01:00,28.0,23.0,29.80,East,90,2.0,3.0,81,0.00,,,0.00,,2013-02-13 14:01:00,
2013-02-13 09:11:00,29.0,24.0,29.79,ESE,107,1.0,2.0,81,0.00,,,0.00,,2013-02-13 14:11:00,
2013-02-13 09:21:00,29.0,24.0,29.79,ESE,107,1.0,2.0,81,0.00,,,0.00,,2013-02-13 14:21:00,
2013-02-13 09:32:00,30.0,25.0,29.79,SSE,158,1.0,1.0,81,0.00,,,0.00,,2013-02-13 14:32:00,
2013-02-13 09:42:00,30.0,25.0,29.79,SSE,158,1.0,1.0,81,0.00,,,0.00,,2013-02-13 14:42:00,
2013-02-13 09:52:00,30.0,25.0,29.79,SSE,158,1.0,1.0,81,0.00,,,0.00,,2013-02-13 14:52:00,
2013-02-13 10:01:00,31.0,26.0,29.79,ENE,78,0.0,1.0,80,0.00,,,0.00,,2013-02-13 15:01:00,
2013-02-13 10:11:00,32.0,26.0,29.78,NNW,338,1.0,2.0,79,0.00,,,0.00,,2013-02-13 15:11:00,
2013-02-13 10:21:00,32.0,26.0,29.78,NNW,338,1.0,2.0,79,0.00,,,0.00,,2013-02-13 15:21:00,
2013-02-13 10:32:00,32.0,26.0,29.78,NNW,338,1.0,2.0,79,0.00,,,0.00,,2013-02-13 15:32:00,
2013-02-13 10:42:00,32.0,26.0,29.78,NNW,338,1.0,2.0,79,0.00,,,0.00,,2013-02-13 15:42:00,
2013-02-13 10:52:00,33.0,27.0,29.78,NW,309,1.0,2.0,79,0.00,,,0.00,,2013-02-13 15:52:00,
2013-02-13 11:01:00,33.0,27.0,29.78,SSE,158,0.0,0.0,79,0.00,,,0.00,,2013-02-13 16:01:00,
2013-02-13 11:11:00,33.0,27.0,29.78,SSE,158,0.0,0.0,79,0.00,,,0.00,,2013-02-13 16:11:00,
2013-02-13 11:21:00,33.0,27.0,29.78,SSE,158,0.0,0.0,79,0.00,,,0.00,,2013-02-13 16:21:00,
2013-02-13 11:32:00,35.0,29.0,29.80,NNE,21,1.0,2.0,77,0.00,,,0.00,,2013-02-13 16:32:00,
2013-02-13 11:42:00,35.0,29.0,29.80,NNE,21,1.0,2.0,77,0.00,,,0.00,,2013-02-13 16:42:00,
2013-02-13 11:52:00,36.0,29.0,29.79,ENE,68,3.0,7.0,74,0.00,,,0.00,,2013-02-13 16:52:00,
2013-02-13 12:02:00,37.0,29.0,29.79,ESE,119,3.0,7.0,74,0.00,,,0.00,,2013-02-13 17:02:00,
2013-02-13 12:11:00,37.0,28.0,29.79,East,91,2.0,5.0,71,0.00,,,0.00,,2013-02-13 17:11:00,
2013-02-13 12:21:00,37.0,28.0,29.79,East,91,2.0,5.0,71,0.00,,,0.00,,2013-02-13 17:21:00,
2013-02-13 12:32:00,38.0,29.0,29.74,NE,52,2.0,2.0,71,0.00,,,0.00,,2013-02-13 17:32:00,
2013-02-13 12:42:00,38.0,29.0,29.74,NE,52,2.0,2.0,71,0.00,,,0.00,,2013-02-13 17:42:00,
2013-02-13 12:52:00,39.0,30.0,29.73,South,180,2.0,5.0,70,0.00,,,0.00,,2013-02-13 17:52:00,
2013-02-13 13:02:00,40.0,31.0,29.73,SSE,152,2.0,5.0,69,0.00,,,0.00,,2013-02-13 18:02:00,
2013-02-13 13:11:00,40.0,31.0,29.73,SSE,152,2.0,5.0,69,0.00,,,0.00,,2013-02-13 18:11:00,
2013-02-13 13:23:00,40.0,31.0,29.73,SSE,152,2.0,5.0,69,0.00,,,0.00,,2013-02-13 18:23:00,
2013-02-13 13:32:00,43.0,31.0,29.73,SW,234,5.0,7.0,63,0.00,,,0.00,,2013-02-13 18:32:00,
2013-02-13 13:42:00,43.0,31.0,29.73,SW,234,5.0,7.0,63,0.00,,,0.00,,2013-02-13 18:42:00,
2013-02-13 13:52:00,43.0,31.0,29.71,SE,133,2.0,6.0,63,0.00,,,0.00,,2013-02-13 18:52:00,
2013-02-13 14:01:00,43.0,31.0,29.71,SE,133,2.0,6.0,63,0.00,,,0.00,,2013-02-13 19:01:00,
2013-02-13 14:11:00,42.0,31.0,29.69,NNW,344,1.0,5.0,64,0.00,,,0.00,,2013-02-13 19:11:00,
2013-02-13 14:21:00,42.0,31.0,29.69,NNW,344,1.0,5.0,64,0.00,,,0.00,,2013-02-13 19:21:00,
2013-02-13 14:32:00,42.0,30.0,29.69,NNE,28,1.0,2.0,63,0.00,,,0.00,,2013-02-13 19:32:00,
2013-02-13 14:42:00,42.0,30.0,29.69,NNE,28,1.0,2.0,63,0.00,,,0.00,,2013-02-13 19:42:00,
2013-02-13 14:52:00,42.0,30.0,29.67,SE,141,1.0,2.0,63,0.00,,,0.00,,2013-02-13 19:52:00,
2013-02-13 15:02:00,42.0,30.0,29.67,NNW,344,0.0,1.0,63,0.00,,,0.00,,2013-02-13 20:02:00,
2013-02-13 15:11:00,41.0,30.0,29.67,NW,321,2.0,2.0,65,0.00,,,0.00,,2013-02-13 20:11:00,
2013-02-13 15:21:00,41.0,30.0,29.67,NW,321,2.0,2.0,65,0.00,,,0.00,,2013-02-13 20:21:00,
2013-02-13 15:32:00,41.0,31.0,29.65,NNW,348,2.0,2.0,66,0.00,,,0.00,,2013-02-13 20:32:00,
2013-02-13 15:42:00,41.0,31.0,29.65,NNE,29,1.0,2.0,67,0.00,,,0.00,,2013-02-13 20:42:00,
2013-02-13 15:52:00,41.0,31.0,29.65,NNE,29,1.0,2.0,67,0.00,,,0.00,,2013-02-13 20:52:00,
2013-02-13 16:01:00,40.0,30.0,29.65,NNW,338,0.0,2.0,66,0.00,,,0.00,,2013-02-13 21:01:00,
2013-02-13 16:11:00,40.0,30.0,29.65,NNW,338,0.0,2.0,66,0.00,,,0.00,,2013-02-13 21:11:00,
2013-02-13 16:21:00,40.0,30.0,29.64,NW,306,0.0,1.0,67,0.00,,,0.00,,2013-02-13 21:21:00,
2013-02-13 16:31:00,40.0,30.0,29.64,SW,225,0.0,0.0,68,0.00,,,0.00,,2013-02-13 21:31:00,
2013-02-13 16:42:00,40.0,30.0,29.63,NW,315,0.0,2.0,68,0.00,,,0.00,,2013-02-13 21:42:00,
2013-02-13 16:52:00,40.0,30.0,29.63,NW,315,0.0,2.0,68,0.00,,,0.00,,2013-02-13 21:52:00,
2013-02-13 17:02:00,39.0,30.0,29.63,NW,315,0.0,0.0,69,0.00,,,0.00,,2013-02-13 22:02:00,
2013-02-13 17:11:00,39.0,30.0,29.64,WNW,292,0.0,0.0,69,0.00,,,0.00,,2013-02-13 22:11:00,
2013-02-13 17:21:00,39.0,30.0,29.64,WNW,292,0.0,0.0,69,0.00,,,0.00,,2013-02-13 22:21:00,
2013-02-13 17:32:00,38.0,29.0,29.64,North,0,0.0,0.0,70,0.00,,,0.00,,2013-02-13 22:32:00,
2013-02-13 17:42:00,38.0,29.0,29.64,North,0,0.0,0.0,70,0.00,,,0.00,,2013-02-13 22:42:00,
2013-02-13 17:52:00,38.0,29.0,29.64,WSW,238,0.0,0.0,71,0.00,,,0.00,,2013-02-13 22:52:00,
2013-02-13 18:01:00,38.0,29.0,29.64,WSW,248,0.0,1.0,71,0.00,,,0.00,,2013-02-13 23:01:00,
2013-02-13 18:11:00,38.0,29.0,29.64,WSW,248,0.0,1.0,71,0.00,,,0.00,,2013-02-13 23:11:00,
2013-02-13 18:21:00,38.0,29.0,29.64,WSW,248,0.0,1.0,71,0.00,,,0.00,,2013-02-13 23:21:00,
2013-02-13 18:32:00,37.0,29.0,29.64,WSW,242,0.0,1.0,72,0.00,,,0.00,,2013-02-13 23:32:00,
2013-02-13 18:42:00,37.0,29.0,29.64,WSW,242,0.0,1.0,72,0.00,,,0.00,,2013-02-13 23:42:00,
2013-02-13 18:53:00,37.0,29.0,29.64,WSW,242,0.0,1.0,72,0.00,,,0.00,,2013-02-13 23:53:00,
2013-02-13 19:02:00,37.0,29.0,29.64,WSW,242,0.0,1.0,72,0.00,,,0.00,,2013-02-14 00:02:00,
2013-02-13 19:11:00,37.0,29.0,29.64,WSW,242,0.0,1.0,72,0.00,,,0.00,,2013-02-14 00:11:00,